sat.trackr.live / text

‹ back to catalog

STARLINK-37785

NORAD 69345 · 2026-122S

PAYLOAD ACTIVE UNKNOWN

§ Identity

Operator
Country
US
Launch date
2026-06-03
Launch site
AFWTR
Launch vehicle
Mass (kg)
RCS (m²)

Purposes: comms

External: N2YO · Heavens-Above · Gunter

§ Orbital elements

Epoch: 2026-09-18T19:42:46.564128Z

Period
93.91 min
Inclination
97.2836°
Eccentricity
0.0001260
Mean motion
15.33445238 rev/d
Perigee alt
464.7 km
Apogee alt
466.4 km
Semi-major
6,843.7 km
B*
3.5366e-4
RAAN
290.4898°
Arg perigee
96.3358°
Mean anomaly
263.8029°
Rev number
1,654

§ Raw data

STARLINK-377851 69345U 26122S   26261.82137227  .00011360  00000+0  35366-3 0  99952 69345  97.2836 290.4898 0001260  96.3358 263.8029 15.33445238 16541

JSON: /api/v1/satellites/69345 · /tle

For live sub-satellite position, see the globe view (requires WebGL).

§ Visibility from observer

Set your observer location to see the next 7 days of passes ≥ 10°. The values pass through the URL so the page stays shareable.

No JS? Fill the form by hand. The geolocation button needs JavaScript.